Location: Unspecified
(0.0000°N, 0.0000°E)
Time: 07:07:52
(UTC+02:00)

Tiangong 1 - Visible Passes

Search period start: 24 May 2015 00:00
Search period end: 03 June 2015 00:00
Orbit: 377 x 395 km, 42.8° (Epoch: 23 May)

Date Brightness Start Highest point End Pass type
(mag) Time Alt. Az. Time Alt. Az. Time Alt. Az.
31 May 3.7 21:47:03 10° NNW 21:47:57 17° NNW 21:47:57 17° NNW visible
01 Jun 3.2 20:48:45 10° N 20:50:34 15° NE 20:51:39 13° ENE visible
02 Jun 1.4 21:24:37 10° NW 21:27:35 63° WSW 21:27:35 63° WSW visible
